User: anonymous   Login
Location: Bothwell
(42.3833°S, 147.0000°E)
Time: 02:44:00
(UTC+10:00)
Language:

CAS-4B - Orbit

View from above orbital plane
View from above orbital plane
View from above satellite
View from above satellite

Ground track
Ground track

The orbit data is extracted from the following two-line orbital elements,

1 42759U 17034B   22270.10783074  .00003674  00000-0  21951-3 0  9996
2 42759  43.0173 132.1235 0010016 217.8790 279.6039 15.12549728291749
Epoch (UTC): 27 September 2022 02:35:16
Eccentricity: 0.0010016
inclination: 43.0173°
perigee height: 521 km
apogee height: 535 km
right ascension of ascending node: 132.1235°
argument of perigee: 217.8790°
revolutions per day: 15.12549728
mean anomaly at epoch: 279.6039°
orbit number at epoch: 29174

The dashed part of the orbit path shows where the satellite is in the earth's shadow,  

DLR